QPF
0.00 0.00 0.00 0.00 0.00 0.00 0.00 0.00 0.00 0.00 0.00 0.00 0.00 0.00 0.00 0.00 0.00 0.00 0.00 0.00 0.00 0.00 0.00 0.00 0.00 0.00 0.00 0.00 0.00 0.00 0.00 0.00 0.00 0.00 0.00 0.00 0.00 0.00 0.00 0.00 0.00 0.00 0.00 0.00
0.00 0.00 0.00 0.00 0.00 0.00 0.00 0.00 0.00 0.00 0.00 0.00 0.00 0.00 0.00 0.00 0.00 0.00 0.00 0.00 0.00 0.00 0.00 0.00 0.00 0.00 0.00 0.00 0.00 0.00 0.00 0.00 0.00 0.00 0.00 0.00 0.00 0.00 0.00 0.00 0.00 0.00 0.00 0.00
0.00 0.00 0.00 0.00 0.00 0.00 0.00 0.00 0.00 0.00 0.00 0.00 0.00 0.00 0.00 0.00 0.00 0.00 0.00 0.00 0.00 0.00 0.00 0.00 0.00 0.00 0.00 0.00 0.00 0.00 0.00 0.00 0.00 0.00 0.00 0.01 0.01 0.01 0.00 0.00 0.00 0.00 0.00 0.00
0.00 0.00 0.00 0.00 0.00 0.00 0.00 0.00 0.00 0.00 0.00 0.00 0.00 0.00 0.00 0.00 0.00 0.00 0.00 0.00 0.00 0.00 0.00 0.00 0.00 0.00 0.00 0.00 0.00 0.00 0.00 0.00 0.00 0.01 0.01 0.01 0.01 0.01 0.01 0.01 0.01 0.00 0.00 0.00
0.00 0.00 0.00 0.00 0.00 0.00 0.00 0.00 0.00 0.00 0.00 0.00 0.00 0.00 0.00 0.00 0.00 0.00 0.00 0.00 0.00 0.00 0.00 0.00 0.00 0.00 0.00 0.00 0.00 0.00 0.00 0.01 0.01 0.02 0.02 0.03 0.04 0.03 0.03 0.03 0.02 0.01 0.01 0.00
0.00 0.00 0.00 0.00 0.00 0.00 0.00 0.00 0.00 0.00 0.00 0.00 0.00 0.00 0.00 0.00 0.00 0.00 0.00 0.00 0.00 0.00 0.00 0.00 0.00 0.00 0.00 0.00 0.00 0.00 0.01 0.01 0.02 0.03 0.05 0.06 0.07 0.08 0.07 0.06 0.04 0.02 0.01 0.01
0.00 0.00 0.00 0.00 0.00 0.00 0.00 0.00 0.00 0.00 0.00 0.00 0.00 0.00 0.00 0.00 0.00 0.00 0.00 0.00 0.00 0.00 0.00 0.00 0.00 0.00 0.00 0.00 0.01 0.01 0.01 0.02 0.03 0.04 0.06 0.07 0.07 0.08 0.08 0.07 0.05 0.03 0.01 0.00
0.00 0.00 0.00 0.00 0.00 0.00 0.00 0.00 0.00 0.00 0.00 0.00 0.00 0.00 0.00 0.00 0.00 0.00 0.00 0.00 0.00 0.00 0.00 0.00 0.00 0.00 0.01 0.01 0.01 0.02 0.02 0.03 0.03 0.04 0.05 0.07 0.08 0.09 0.08 0.08 0.07 0.06 0.03 0.01
0.00 0.00 0.00 0.00 0.00 0.00 0.00 0.00 0.00 0.00 0.00 0.00 0.00 0.00 0.00 0.00 0.00 0.00 0.00 0.00 0.00 0.00 0.00 0.00 0.00 0.00 0.01 0.01 0.02 0.03 0.03 0.03 0.04 0.05 0.05 0.06 0.08 0.09 0.10 0.10 0.08 0.06 0.05 0.03
0.00 0.00 0.00 0.00 0.00 0.00 0.00 0.00 0.00 0.00 0.00 0.00 0.00 0.00 0.00 0.00 0.00 0.00 0.00 0.00 0.00 0.00 0.00 0.00 0.00 0.00 0.01 0.03 0.03 0.03 0.03 0.03 0.03 0.04 0.04 0.05 0.07 0.08 0.10 0.11 0.10 0.07 0.05 0.03
0.00 0.00 0.00 0.00 0.00 0.00 0.00 0.00 0.00 0.00 0.00 0.00 0.00 0.00 0.00 0.00 0.00 0.00 0.00 0.00 0.00 0.00 0.00 0.00 0.00 0.01 0.02 0.03 0.04 0.04 0.03 0.02 0.02 0.03 0.05 0.05 0.06 0.06 0.07 0.09 0.11 0.09 0.06 0.04
0.00 0.00 0.00 0.00 0.00 0.00 0.00 0.00 0.00 0.00 0.00 0.00 0.00 0.00 0.00 0.00 0.00 0.00 0.00 0.00 0.00 0.00 0.00 0.00 0.01 0.02 0.03 0.04 0.05 0.05 0.04 0.02 0.02 0.04 0.04 0.05 0.06 0.07 0.07 0.07 0.09 0.08 0.06 0.05
0.00 0.00 0.00 0.00 0.00 0.00 0.00 0.00 0.00 0.00 0.00 0.00 0.00 0.00 0.00 0.00 0.00 0.00 0.00 0.00 0.00 0.00 0.00 0.01 0.01 0.03 0.04 0.05 0.06 0.05 0.04 0.02 0.02 0.03 0.03 0.02 0.03 0.04 0.06 0.06 0.07 0.06 0.04 0.04
0.00 0.00 0.00 0.00 0.00 0.00 0.00 0.00 0.00 0.00 0.00 0.00 0.00 0.00 0.00 0.00 0.00 0.00 0.00 0.00 0.00 0.00 0.00 0.01 0.02 0.04 0.05 0.05 0.05 0.05 0.04 0.02 0.02 0.02 0.01 0.01 0.01 0.02 0.03 0.04 0.05 0.04 0.03 0.03
0.00 0.00 0.00 0.00 0.00 0.00 0.00 0.00 0.00 0.00 0.00 0.00 0.00 0.00 0.00 0.00 0.00 0.00 0.00 0.00 0.00 0.00 0.01 0.02 0.03 0.04 0.04 0.05 0.05 0.04 0.04 0.02 0.02 0.01 0.00 0.00 0.00 0.01 0.01 0.02 0.02 0.03 0.02 0.02
0.00 0.00 0.00 0.00 0.00 0.00 0.00 0.00 0.00 0.00 0.00 0.00 0.00 0.00 0.00 0.00 0.00 0.00 0.00 0.00 0.00 0.00 0.01 0.02 0.03 0.04 0.04 0.05 0.05 0.04 0.03 0.03 0.02 0.00 0.00 0.00 0.00 0.01 0.01 0.01 0.01 0.02 0.02 0.02
0.00 0.00 0.00 0.00 0.00 0.00 0.00 0.00 0.00 0.00 0.00 0.00 0.00 0.00 0.00 0.00 0.00 0.00 0.00 0.00 0.00 0.00 0.01 0.02 0.02 0.04 0.04 0.04 0.05 0.04 0.03 0.02 0.02 0.00 0.00 0.00 0.00 0.00 0.01 0.01 0.01 0.01 0.01 0.01
0.00 0.00 0.00 0.00 0.00 0.00 0.00 0.00 0.00 0.00 0.00 0.00 0.00 0.00 0.00 0.00 0.00 0.00 0.00 0.00 0.00 0.00 0.00 0.01 0.02 0.03 0.03 0.03 0.05 0.03 0.02 0.02 0.01 0.00 0.00 0.00 0.00 0.00 0.00 0.01 0.01 0.01 0.01 0.01
0.00 0.00 0.00 0.00 0.00 0.00 0.00 0.00 0.00 0.00 0.00 0.00 0.00 0.00 0.00 0.00 0.00 0.00 0.00 0.00 0.00 0.00 0.00 0.00 0.02 0.02 0.02 0.02 0.04 0.03 0.01 0.01 0.01 0.00 0.00 0.00 0.00 0.00 0.00 0.01 0.01 0.01 0.01 0.01
0.00 0.00 0.00 0.00 0.00 0.00 0.00 0.00 0.00 0.00 0.00 0.00 0.00 0.00 0.00 0.00 0.00 0.00 0.00 0.00 0.00 0.00 0.00 0.00 0.01 0.01 0.02 0.02 0.03 0.03 0.02 0.01 0.01 0.01 0.00 0.01 0.00 0.00 0.00 0.00 0.01 0.01 0.02 0.03
0.00 0.00 0.00 0.00 0.00 0.00 0.00 0.00 0.00 0.00 0.00 0.00 0.00 0.00 0.00 0.00 0.00 0.00 0.00 0.00 0.00 0.00 0.00 0.00 0.00 0.01 0.02 0.02 0.02 0.02 0.02 0.01 0.01 0.01 0.01 0.00 0.00 0.00 0.00 0.00 0.00 0.01 0.02 0.02
0.00 0.00 0.00 0.00 0.00 0.00 0.00 0.00 0.00 0.00 0.00 0.00 0.00 0.00 0.00 0.00 0.00 0.00 0.00 0.00 0.00 0.00 0.00 0.00 0.01 0.01 0.02 0.02 0.01 0.01 0.02 0.01 0.01 0.01 0.00 0.00 0.00 0.00 0.00 0.00 0.00 0.00 0.01 0.01
0.00 0.00 0.00 0.00 0.00 0.00 0.00 0.00 0.00 0.00 0.00 0.00 0.00 0.00 0.00 0.00 0.00 0.00 0.00 0.00 0.00 0.00 0.00 0.00 0.01 0.01 0.02 0.01 0.01 0.01 0.01 0.01 0.01 0.01 0.01 0.00 0.00 0.00 0.00 0.00 0.00 0.00 0.00 0.00
0.00 0.00 0.00 0.00 0.00 0.00 0.00 0.00 0.00 0.00 0.00 0.00 0.00 0.00 0.00 0.00 0.00 0.00 0.00 0.00 0.00 0.00 0.00 0.00 0.00 0.01 0.01 0.01 0.01 0.01 0.01 0.01 0.01 0.01 0.01 0.00 0.00 0.00 0.00 0.00 0.00 0.00 0.00 0.00
0.00 0.00 0.00 0.00 0.00 0.00 0.00 0.00 0.00 0.00 0.00 0.00 0.00 0.00 0.00 0.00 0.00 0.00 0.00 0.00 0.00 0.00 0.00 0.00 0.00 0.00 0.00 0.01 0.02 0.01 0.01 0.00 0.01 0.01 0.01 0.00 0.00 0.00 0.00 0.00 0.00 0.00 0.00 0.00
0.01 0.01 0.01 0.01 0.00 0.00 0.00 0.00 0.00 0.00 0.00 0.00 0.00 0.00 0.00 0.00 0.00 0.00 0.00 0.00 0.00 0.00 0.00 0.00 0.00 0.00 0.00 0.01 0.02 0.02 0.01 0.01 0.01 0.01 0.01 0.00 0.00 0.00 0.00 0.00 0.00 0.00 0.00 0.00
0.02 0.02 0.01 0.01 0.01 0.00 0.00 0.00 0.00 0.00 0.00 0.00 0.00 0.00 0.00 0.00 0.00 0.00 0.00 0.00 0.00 0.00 0.00 0.00 0.00 0.00 0.00 0.01 0.02 0.03 0.02 0.02 0.01 0.01 0.01 0.01 0.00 0.00 0.01 0.00 0.00 0.00 0.00 0.00
MSLP
1016.88 1017.26 1017.60 1017.90 1018.17 1018.39 1018.55 1018.65 1018.67 1018.62 1018.49 1018.29 1018.04 1017.75 1017.43 1017.09 1016.73 1016.37 1015.98 1015.58 1015.17 1014.72 1014.27 1013.79 1013.30 1012.80 1012.28 1011.73 1011.16 1010.55 1009.90 1009.22 1008.52 1007.83 1007.18 1006.61 1006.15 1005.82 1005.64 1005.59 1005.67 1005.84 1006.05 1006.27
1017.38 1017.73 1018.00 1018.19 1018.30 1018.36 1018.36 1018.33 1018.26 1018.17 1018.05 1017.91 1017.75 1017.54 1017.31 1017.03 1016.71 1016.33 1015.92 1015.47 1014.99 1014.50 1014.00 1013.51 1013.02 1012.53 1012.03 1011.51 1010.93 1010.30 1009.61 1008.87 1008.09 1007.32 1006.59 1005.94 1005.42 1005.05 1004.84 1004.79 1004.87 1005.05 1005.28 1005.53
1017.82 1018.13 1018.31 1018.39 1018.37 1018.29 1018.17 1018.03 1017.90 1017.79 1017.69 1017.60 1017.50 1017.37 1017.20 1016.96 1016.65 1016.26 1015.80 1015.28 1014.73 1014.17 1013.62 1013.10 1012.59 1012.11 1011.62 1011.11 1010.54 1009.91 1009.21 1008.44 1007.63 1006.82 1006.05 1005.37 1004.82 1004.43 1004.22 1004.16 1004.23 1004.41 1004.64 1004.88
1018.17 1018.40 1018.50 1018.48 1018.35 1018.17 1017.96 1017.76 1017.59 1017.46 1017.38 1017.33 1017.28 1017.21 1017.07 1016.85 1016.53 1016.11 1015.59 1015.01 1014.38 1013.75 1013.14 1012.57 1012.04 1011.54 1011.05 1010.55 1010.00 1009.38 1008.69 1007.94 1007.14 1006.34 1005.57 1004.90 1004.36 1003.98 1003.75 1003.69 1003.75 1003.91 1004.12 1004.34
1018.38 1018.52 1018.53 1018.41 1018.21 1017.96 1017.69 1017.46 1017.27 1017.15 1017.09 1017.07 1017.05 1017.01 1016.89 1016.67 1016.33 1015.87 1015.31 1014.65 1013.96 1013.26 1012.59 1011.96 1011.40 1010.87 1010.38 1009.88 1009.35 1008.76 1008.10 1007.39 1006.63 1005.87 1005.14 1004.50 1003.99 1003.61 1003.39 1003.32 1003.36 1003.48 1003.66 1003.84
1018.38 1018.42 1018.34 1018.16 1017.91 1017.62 1017.33 1017.09 1016.91 1016.81 1016.77 1016.77 1016.78 1016.75 1016.64 1016.41 1016.05 1015.56 1014.94 1014.24 1013.49 1012.73 1012.00 1011.33 1010.72 1010.17 1009.66 1009.16 1008.65 1008.09 1007.47 1006.80 1006.10 1005.39 1004.72 1004.12 1003.64 1003.28 1003.06 1002.96 1002.97 1003.06 1003.19 1003.33
1018.14 1018.08 1017.93 1017.70 1017.43 1017.14 1016.87 1016.65 1016.50 1016.42 1016.41 1016.43 1016.45 1016.42 1016.31 1016.07 1015.69 1015.18 1014.53 1013.79 1013.00 1012.20 1011.42 1010.71 1010.06 1009.48 1008.95 1008.45 1007.94 1007.40 1006.82 1006.20 1005.55 1004.90 1004.27 1003.72 1003.25 1002.90 1002.66 1002.54 1002.51 1002.56 1002.65 1002.76
1017.64 1017.50 1017.30 1017.06 1016.80 1016.54 1016.32 1016.14 1016.04 1016.00 1016.01 1016.05 1016.07 1016.05 1015.93 1015.68 1015.29 1014.76 1014.10 1013.34 1012.53 1011.70 1010.90 1010.14 1009.46 1008.84 1008.28 1007.76 1007.25 1006.72 1006.16 1005.58 1004.98 1004.37 1003.79 1003.26 1002.80 1002.44 1002.19 1002.03 1001.96 1001.96 1002.02 1002.12
1016.93 1016.73 1016.52 1016.29 1016.08 1015.88 1015.72 1015.62 1015.57 1015.57 1015.61 1015.66 1015.69 1015.66 1015.53 1015.27 1014.88 1014.35 1013.69 1012.93 1012.10 1011.26 1010.43 1009.65 1008.93 1008.27 1007.68 1007.13 1006.60 1006.07 1005.52 1004.96 1004.39 1003.81 1003.26 1002.74 1002.29 1001.92 1001.63 1001.44 1001.33 1001.30 1001.34 1001.43
1016.06 1015.85 1015.66 1015.49 1015.34 1015.23 1015.16 1015.13 1015.15 1015.19 1015.25 1015.31 1015.33 1015.29 1015.15 1014.89 1014.49 1013.96 1013.31 1012.56 1011.74 1010.89 1010.04 1009.23 1008.47 1007.78 1007.14 1006.55 1005.99 1005.45 1004.91 1004.36 1003.81 1003.26 1002.72 1002.22 1001.76 1001.38 1001.06 1000.83 1000.69 1000.64 1000.66 1000.76
1015.13 1014.94 1014.81 1014.72 1014.67 1014.66 1014.68 1014.73 1014.81 1014.89 1014.97 1015.02 1015.03 1014.97 1014.81 1014.54 1014.15 1013.62 1012.98 1012.24 1011.42 1010.57 1009.71 1008.88 1008.08 1007.33 1006.65 1006.02 1005.43 1004.87 1004.32 1003.79 1003.26 1002.73 1002.22 1001.74 1001.29 1000.89 1000.57 1000.32 1000.15 1000.07 1000.09 1000.19
1014.21 1014.08 1014.03 1014.04 1014.10 1014.20 1014.32 1014.44 1014.57 1014.68 1014.76 1014.80 1014.79 1014.70 1014.52 1014.24 1013.84 1013.32 1012.69 1011.96 1011.15 1010.30 1009.43 1008.56 1007.73 1006.94 1006.21 1005.53 1004.91 1004.34 1003.79 1003.27 1002.77 1002.28 1001.81 1001.36 1000.94 1000.56 1000.23 999.98 999.80 999.71 999.71 999.81
1013.34 1013.31 1013.36 1013.48 1013.66 1013.85 1014.06 1014.25 1014.41 1014.53 1014.61 1014.63 1014.58 1014.46 1014.26 1013.96 1013.55 1013.03 1012.41 1011.70 1010.90 1010.05 1009.16 1008.27 1007.40 1006.57 1005.80 1005.09 1004.44 1003.86 1003.32 1002.83 1002.37 1001.94 1001.52 1001.13 1000.75 1000.41 1000.11 999.87 999.69 999.59 999.59 999.67
1012.56 1012.62 1012.79 1013.02 1013.30 1013.59 1013.86 1014.09 1014.28 1014.40 1014.46 1014.45 1014.37 1014.22 1013.99 1013.67 1013.26 1012.75 1012.14 1011.44 1010.66 1009.81 1008.91 1008.00 1007.11 1006.24 1005.43 1004.69 1004.03 1003.44 1002.93 1002.47 1002.07 1001.70 1001.36 1001.04 1000.74 1000.45 1000.20 999.99 999.82 999.73 999.70 999.76
1011.84 1012.01 1012.28 1012.62 1012.99 1013.35 1013.67 1013.93 1014.13 1014.24 1014.28 1014.24 1014.13 1013.95 1013.70 1013.37 1012.96 1012.46 1011.87 1011.19 1010.42 1009.58 1008.68 1007.76 1006.85 1005.96 1005.12 1004.36 1003.69 1003.10 1002.61 1002.20 1001.85 1001.56 1001.30 1001.07 1000.85 1000.65 1000.46 1000.29 1000.15 1000.06 1000.02 1000.04
1011.18 1011.45 1011.82 1012.24 1012.67 1013.08 1013.44 1013.72 1013.91 1014.02 1014.03 1013.97 1013.84 1013.64 1013.38 1013.05 1012.65 1012.17 1011.60 1010.94 1010.20 1009.37 1008.49 1007.57 1006.64 1005.73 1004.88 1004.10 1003.42 1002.84 1002.37 1002.00 1001.71 1001.48 1001.31 1001.16 1001.03 1000.91 1000.79 1000.68 1000.58 1000.50 1000.45 1000.44
1010.57 1010.92 1011.36 1011.84 1012.33 1012.77 1013.15 1013.44 1013.63 1013.72 1013.73 1013.65 1013.50 1013.30 1013.04 1012.72 1012.34 1011.89 1011.35 1010.73 1010.01 1009.22 1008.35 1007.44 1006.51 1005.60 1004.74 1003.95 1003.26 1002.68 1002.22 1001.87 1001.62 1001.45 1001.34 1001.27 1001.22 1001.18 1001.13 1001.08 1001.01 1000.96 1000.90 1000.87
1010.00 1010.42 1010.91 1011.43 1011.95 1012.41 1012.80 1013.09 1013.28 1013.38 1013.38 1013.30 1013.16 1012.97 1012.72 1012.43 1012.08 1011.66 1011.16 1010.57 1009.90 1009.13 1008.29 1007.40 1006.48 1005.58 1004.71 1003.91 1003.21 1002.63 1002.16 1001.82 1001.59 1001.45 1001.38 1001.36 1001.37 1001.39 1001.40 1001.39 1001.38 1001.34 1001.30 1001.25
1009.50 1009.95 1010.47 1011.01 1011.54 1012.02 1012.41 1012.71 1012.91 1013.01 1013.02 1012.97 1012.84 1012.67 1012.46 1012.19 1011.88 1011.49 1011.04 1010.49 1009.85 1009.13 1008.32 1007.46 1006.57 1005.67 1004.80 1004.01 1003.30 1002.70 1002.22 1001.87 1001.63 1001.49 1001.43 1001.43 1001.47 1001.52 1001.57 1001.60 1001.62 1001.62 1001.60 1001.55
1009.07 1009.54 1010.06 1010.61 1011.13 1011.61 1012.01 1012.32 1012.54 1012.66 1012.70 1012.68 1012.59 1012.45 1012.27 1012.04 1011.76 1011.41 1010.99 1010.48 1009.89 1009.20 1008.44 1007.61 1006.75 1005.87 1005.02 1004.23 1003.51 1002.90 1002.40 1002.02 1001.75 1001.58 1001.51 1001.50 1001.53 1001.59 1001.66 1001.72 1001.76 1001.79 1001.79 1001.76
1008.72 1009.17 1009.68 1010.21 1010.73 1011.21 1011.62 1011.95 1012.19 1012.35 1012.44 1012.45 1012.40 1012.31 1012.16 1011.97 1011.71 1011.40 1011.01 1010.53 1009.97 1009.32 1008.60 1007.82 1007.00 1006.16 1005.34 1004.56 1003.85 1003.23 1002.71 1002.29 1001.99 1001.78 1001.66 1001.61 1001.61 1001.65 1001.71 1001.77 1001.83 1001.88 1001.90 1001.90
1008.41 1008.83 1009.32 1009.82 1010.33 1010.81 1011.23 1011.59 1011.87 1012.08 1012.21 1012.28 1012.28 1012.23 1012.12 1011.95 1011.72 1011.43 1011.06 1010.61 1010.08 1009.47 1008.79 1008.06 1007.29 1006.50 1005.72 1004.98 1004.29 1003.67 1003.13 1002.69 1002.34 1002.08 1001.91 1001.80 1001.76 1001.76 1001.78 1001.83 1001.88 1001.93 1001.97 1001.99
1008.11 1008.49 1008.92 1009.40 1009.90 1010.37 1010.82 1011.21 1011.55 1011.82 1012.01 1012.14 1012.20 1012.19 1012.11 1011.97 1011.76 1011.47 1011.12 1010.68 1010.18 1009.60 1008.97 1008.29 1007.58 1006.85 1006.13 1005.44 1004.78 1004.19 1003.66 1003.20 1002.82 1002.51 1002.28 1002.11 1002.00 1001.94 1001.92 1001.93 1001.96 1002.00 1002.04 1002.07
1007.75 1008.07 1008.46 1008.91 1009.39 1009.88 1010.36 1010.80 1011.19 1011.53 1011.80 1012.00 1012.11 1012.15 1012.11 1011.99 1011.79 1011.51 1011.16 1010.74 1010.25 1009.70 1009.11 1008.49 1007.84 1007.18 1006.54 1005.91 1005.31 1004.75 1004.24 1003.79 1003.39 1003.05 1002.76 1002.53 1002.35 1002.23 1002.14 1002.10 1002.09 1002.10 1002.13 1002.16
1007.28 1007.54 1007.89 1008.32 1008.79 1009.30 1009.81 1010.31 1010.78 1011.20 1011.55 1011.82 1012.00 1012.10 1012.09 1012.00 1011.81 1011.54 1011.19 1010.77 1010.30 1009.78 1009.23 1008.65 1008.07 1007.49 1006.92 1006.37 1005.84 1005.34 1004.86 1004.42 1004.02 1003.66 1003.33 1003.05 1002.80 1002.61 1002.46 1002.35 1002.28 1002.25 1002.25 1002.27
1006.66 1006.87 1007.19 1007.59 1008.08 1008.61 1009.18 1009.75 1010.29 1010.80 1011.24 1011.59 1011.85 1012.00 1012.05 1011.98 1011.82 1011.56 1011.22 1010.81 1010.35 1009.86 1009.34 1008.82 1008.30 1007.79 1007.29 1006.81 1006.36 1005.91 1005.49 1005.08 1004.69 1004.31 1003.96 1003.63 1003.33 1003.07 1002.85 1002.67 1002.54 1002.46 1002.42 1002.41
1005.91 1006.07 1006.36 1006.76 1007.26 1007.84 1008.46 1009.10 1009.74 1010.33 1010.87 1011.32 1011.66 1011.88 1011.98 1011.97 1011.83 1011.60 1011.27 1010.88 1010.44 1009.97 1009.49 1009.01 1008.55 1008.10 1007.67 1007.26 1006.87 1006.49 1006.12 1005.74 1005.37 1005.00 1004.63 1004.27 1003.92 1003.60 1003.32 1003.08 1002.88 1002.74 1002.66 1002.62
Thickness
5694 5697 5695 5687 5683 5680 5672 5665 5651 5651 5648 5647 5642 5635 5630 5625 5620 5613 5606 5600 5594 5588 5584 5581 5577 5573 5569 5565 5559 5554 5548 5544 5540 5538 5537 5537 5536 5535 5535 5535 5536 5536 5536 5536
5689 5691 5688 5679 5678 5676 5671 5666 5658 5651 5645 5648 5640 5630 5622 5618 5612 5605 5599 5595 5590 5585 5581 5577 5572 5568 5562 5556 5549 5542 5536 5531 5527 5523 5521 5520 5521 5522 5522 5523 5524 5525 5526 5528
5677 5685 5681 5669 5673 5672 5667 5663 5655 5642 5642 5643 5634 5625 5618 5614 5607 5599 5594 5589 5584 5580 5576 5571 5566 5561 5555 5548 5541 5533 5525 5519 5514 5509 5506 5504 5505 5507 5509 5510 5512 5514 5517 5519
5671 5675 5667 5671 5683 5678 5668 5661 5654 5647 5642 5637 5630 5623 5614 5608 5599 5593 5588 5584 5579 5574 5570 5566 5561 5555 5548 5541 5533 5525 5517 5509 5503 5497 5493 5490 5488 5490 5492 5495 5498 5502 5507 5511
5663 5664 5665 5673 5678 5672 5660 5652 5653 5645 5638 5632 5628 5619 5612 5609 5600 5591 5584 5578 5574 5570 5566 5561 5556 5550 5543 5535 5526 5517 5509 5500 5492 5485 5479 5476 5474 5475 5477 5480 5485 5490 5496 5501
5662 5663 5655 5669 5680 5676 5660 5647 5652 5643 5635 5627 5617 5605 5607 5605 5595 5587 5580 5574 5569 5566 5561 5557 5552 5546 5537 5530 5520 5511 5501 5492 5484 5475 5469 5466 5464 5464 5466 5469 5474 5479 5485 5492
5662 5658 5662 5678 5679 5669 5647 5646 5652 5642 5634 5624 5610 5601 5601 5595 5587 5580 5574 5570 5566 5562 5559 5555 5550 5543 5534 5525 5516 5506 5496 5487 5479 5471 5464 5461 5459 5458 5459 5462 5466 5471 5477 5484
5653 5654 5660 5681 5671 5660 5657 5657 5650 5643 5634 5624 5614 5605 5598 5591 5584 5578 5573 5569 5565 5561 5559 5555 5548 5540 5532 5523 5514 5504 5494 5485 5477 5470 5463 5459 5456 5455 5455 5457 5460 5465 5470 5476
5668 5670 5678 5679 5674 5671 5661 5653 5649 5640 5632 5622 5612 5603 5595 5587 5581 5576 5571 5567 5563 5559 5557 5553 5547 5538 5530 5523 5513 5504 5495 5486 5478 5470 5463 5457 5454 5452 5453 5454 5456 5460 5465 5471
5672 5676 5678 5678 5675 5671 5661 5654 5648 5639 5629 5620 5609 5599 5590 5584 5580 5576 5571 5566 5562 5558 5555 5552 5546 5539 5530 5523 5514 5505 5496 5488 5480 5472 5466 5460 5455 5453 5453 5453 5455 5458 5463 5468
5673 5677 5677 5674 5670 5667 5660 5652 5643 5635 5626 5617 5607 5597 5589 5583 5580 5575 5570 5565 5559 5555 5553 5550 5546 5540 5533 5524 5515 5507 5499 5491 5483 5476 5469 5465 5460 5457 5456 5456 5457 5459 5463 5467
5677 5681 5673 5672 5671 5664 5655 5647 5640 5631 5623 5614 5605 5596 5590 5584 5579 5573 5568 5563 5559 5554 5551 5549 5545 5541 5534 5526 5518 5510 5503 5495 5487 5480 5474 5469 5465 5464 5462 5460 5460 5460 5462 5466
5691 5687 5678 5676 5669 5662 5653 5645 5638 5629 5621 5612 5604 5596 5589 5582 5577 5572 5567 5563 5558 5554 5551 5548 5546 5542 5536 5529 5521 5514 5506 5498 5491 5485 5479 5474 5470 5468 5467 5466 5464 5463 5464 5467
5689 5682 5675 5670 5664 5659 5651 5645 5636 5627 5618 5609 5601 5594 5587 5580 5576 5571 5567 5563 5557 5553 5550 5548 5546 5543 5538 5532 5525 5519 5510 5503 5497 5490 5483 5478 5475 5472 5471 5470 5470 5468 5466 5468
5686 5683 5677 5670 5662 5655 5647 5638 5630 5620 5613 5606 5599 5592 5586 5580 5575 5571 5566 5561 5556 5552 5550 5548 5546 5544 5540 5535 5530 5523 5516 5508 5502 5495 5489 5483 5480 5477 5475 5473 5472 5470 5470 5470
5685 5678 5671 5664 5657 5649 5642 5635 5625 5616 5610 5603 5597 5591 5585 5579 5573 5568 5563 5559 5554 5552 5549 5547 5545 5543 5542 5539 5535 5529 5521 5516 5509 5501 5495 5490 5486 5482 5479 5477 5475 5474 5474 5474
5679 5671 5664 5657 5651 5645 5637 5630 5621 5614 5606 5600 5595 5589 5583 5577 5572 5569 5565 5560 5554 5550 5548 5545 5544 5544 5545 5543 5539 5533 5527 5520 5515 5507 5501 5495 5491 5487 5483 5480 5478 5477 5476 5476
5689 5680 5669 5661 5651 5642 5635 5627 5619 5611 5604 5599 5592 5584 5578 5573 5568 5565 5562 5559 5556 5553 5549 5546 5545 5546 5547 5546 5543 5539 5532 5526 5520 5513 5507 5501 5497 5493 5489 5485 5483 5480 5479 5479
5682 5674 5665 5657 5649 5640 5631 5623 5616 5608 5602 5595 5587 5580 5574 5568 5563 5560 5557 5555 5554 5552 5549 5546 5545 5546 5547 5548 5547 5544 5539 5533 5527 5521 5515 5508 5504 5499 5495 5491 5488 5485 5484 5484
5675 5667 5659 5651 5642 5634 5626 5620 5613 5605 5598 5591 5584 5577 5571 5566 5562 5558 5555 5551 5548 5545 5542 5542 5543 5545 5546 5548 5549 5547 5543 5539 5534 5528 5523 5517 5511 5507 5502 5498 5495 5492 5491 5490
5667 5659 5651 5643 5635 5629 5622 5616 5608 5601 5595 5587 5580 5573 5567 5562 5558 5554 5552 5552 5548 5544 5541 5541 5541 5541 5543 5545 5548 5548 5546 5543 5539 5534 5530 5524 5519 5515 5510 5507 5503 5500 5499 5498
5659 5651 5644 5636 5628 5622 5616 5609 5603 5596 5590 5582 5576 5569 5562 5558 5554 5550 5547 5545 5544 5541 5540 5539 5538 5537 5539 5543 5546 5547 5546 5544 5542 5539 5535 5531 5527 5523 5519 5515 5512 5510 5508 5507
5650 5643 5636 5629 5623 5616 5609 5603 5597 5591 5584 5578 5571 5564 5557 5552 5548 5546 5545 5543 5541 5538 5537 5536 5534 5534 5537 5541 5542 5544 5544 5543 5542 5542 5540 5538 5534 5530 5527 5524 5520 5518 5517 5516
5641 5635 5630 5623 5616 5609 5603 5598 5591 5584 5578 5572 5565 5559 5553 5547 5544 5540 5537 5537 5536 5535 5535 5532 5531 5532 5534 5536 5537 5539 5540 5540 5540 5542 5542 5542 5540 5537 5535 5532 5529 5527 5525 5524
5635 5630 5625 5617 5612 5608 5602 5595 5586 5579 5573 5566 5560 5553 5548 5542 5538 5536 5534 5533 5532 5531 5531 5530 5529 5528 5530 5531 5532 5533 5534 5535 5536 5539 5541 5543 5543 5542 5541 5539 5537 5535 5534 5532
5628 5625 5623 5620 5617 5610 5600 5590 5581 5574 5567 5561 5555 5548 5542 5537 5534 5531 5529 5528 5528 5527 5527 5526 5525 5524 5524 5525 5526 5528 5529 5531 5533 5535 5538 5540 5542 5544 5544 5545 5544 5542 5541 5540
5618 5617 5614 5612 5607 5601 5594 5586 5579 5572 5564 5557 5551 5544 5537 5532 5529 5526 5524 5523 5522 5522 5521 5520 5519 5518 5518 5518 5519 5521 5523 5525 5527 5530 5533 5536 5539 5542 5544 5546 5546 5546 5546 5546